OpenBCM V1.13 (Linux)

Packet Radio Mailbox

DB0FHN

[JN59NK Nuernberg]

 Login: GUEST





  
I0OJJ  > KEPS     24.07.25 02:43l 343 Lines 16342 Bytes #999 (0) @ AMSAT
BID : ORB25205.1
Read: DL5MBW DJ6UX GUEST
Subj: 2Line Orbital Elements 25205.AMSAT
Path: DB0FHN<DB0FFL<OE5XBL<OE6XPE<DB0ERF<DK0WUE<HB9ON<HB9ON<PI8ZTM<PY2BIL<
      LU9DCE<VE3TOK<IR0AAB<I0OJJ
Sent: 250724/0025z @:I0OJJ.ITA.EU [Rome] obcm1.08-10-g596e
From: I0OJJ @ I0OJJ.ITA.EU (Gustavo)
To:   KEPS @ AMSAT
X-Info: This message was generated automatically


QST de W1STR

AMSAT Orbital Elements for Amateur Satellites in TLE Format
From Orbital Analysis Office
New England Sci-Tech STEM Education Center
Natick, MA July 24, 2025
To all radio amateurs


These element sets describe the orbits of various satellites 
in use by the amateur radio community. For details see:
www.amsat.org/keplerian-elements-formats/

A daily update of element sets is available at:
www.amsat.org/tle/daily-bulletin.txt
or without bulletin text:
www.amsat.org/tle/dailytle.txt


AO-07
1 07530U 74089B   25204.62625721 -.00000026  00000-0  12737-3 0  9999
2 07530 101.9944 209.3603 0012501  39.7083  73.9219 12.53690319319347
UO-11
1 14781U 84021B   25204.87319668  .00001273  00000-0  13936-3 0  9995
2 14781  97.7573 170.3755 0007657 178.9882 181.1352 14.89488412229235
AO-27
1 22825U 93061C   25204.62361239  .00000106  00000-0  57721-4 0  9996
2 22825  98.7344 266.3936 0008103 351.8639   8.2410 14.30811082660014
FO-29
1 24278U 96046B   25204.59552926 -.00000025  00000-0  12749-4 0  9999
2 24278  98.5699  92.6880 0349158 228.4541 128.6168 13.53250764428721
NOAA-15
1 25338U 98030A   25204.84525718  .00000223  00000-0  10945-3 0  9993
2 25338  98.5339 228.9079 0009374 224.8090 135.2334 14.27000815414711
GO-32
1 25397U 98043D   25204.52686510  .00000076  00000-0  53021-4 0  9994
2 25397  98.9732 184.5696 0002385  85.3311 274.8140 14.24323929404546
ISS
1 25544U 98067A   25204.82343111  .00009030  00000-0  16581-3 0  9992
2 25544  51.6344 125.4774 0002359 111.9505 304.3927 15.50035709520848
NO-44
1 26931U 01043C   25204.58506681  .00000141  00000-0  83763-4 0  9998
2 26931  67.0517  14.0611 0006350 276.7478  83.2901 14.31751859243407
SO-50
1 27607U 02058C   25204.35669733  .00001006  00000-0  14206-3 0  9995
2 27607  64.5527  65.3946 0061026 324.5606  35.1451 14.81728862215719
CO-55
1 27844U 03031E   25204.59479209  .00000332  00000-0  16361-3 0  9998
2 27844  98.6764 212.3009 0010773  63.2929 296.9351 14.24024002144905
CO-57
1 27848U 03031J   25204.56382207  .00000277  00000-0  14116-3 0  9994
2 27848  98.6791 212.2427 0010771  78.8296 281.4093 14.23354920144624
RS-22
1 27939U 03042A   25204.63997981  .00001085  00000-0  17944-3 0  9996
2 27939  98.3315  15.1657 0010480 226.0501 202.2616 14.72436271167319
CO-58
1 28895U 05043F   25204.39004927  .00001626  00000-0  27229-3 0  9991
2 28895  98.2550 349.3031 0014911 163.5406 196.6287 14.71130222 53388
CO-65
1 32785U 08021C   25204.56459829  .00004811  00000-0  34515-3 0  9992
2 32785  97.7869 176.0708 0011524  68.9311 291.3145 15.04771437935699
CO-66
1 32791U 08021J   25204.37472094  .00014448  00000-0  68194-3 0  9994
2 32791  97.7289 185.4240 0004543  44.6041 315.5558 15.19552766937148
RS-30
1 32953U 08025A   25204.58493125  .00000027  00000-0  12603-3 0  9991
2 32953  82.5015 199.8118 0018278 312.6894  47.2646 12.43166558779004
NOAA-19
1 33591U 09005A   25204.80242262  .00000174  00000-0  11691-3 0  9997
2 33591  98.9953 269.7508 0012922 236.1996 123.7946 14.13392929848358
SRMSAT
1 37841U 11058D   25204.49296741  .00000394  00000-0  70341-4 0  9998
2 37841  19.9710 248.8142 0011660 187.0823 202.8436 14.11446314711322
ZACUBE-1
1 39417U 13066B   25204.84038982  .00004946  00000-0  42754-3 0  9993
2 39417  97.7829 161.6351 0041682 264.0053  95.6417 14.96999629631536
Delfi-N3xt
1 39428U 13066N   25204.72314955  .00005930  00000-0  59971-3 0  9992
2 39428  97.8326 121.8915 0082968 214.1889 145.3969 14.88816792625820
GOMX-1
1 39430U 13066Q   25204.59521859  .00002223  00000-0  34836-3 0  9998
2 39430  97.6796  60.5513 0133486  51.9683 309.3483 14.67787678621866
LO-74
1 39440U 13066AA  25204.59568120  .00005423  00000-0  54490-3 0  9994
2 39440  97.8504 148.8606 0062772  36.1889 324.3551 14.90197019627994
AO-73
1 39444U 13066AE  25204.43209940  .00006771  00000-0  50148-3 0  9996
2 39444  97.7855 166.5323 0040290 236.5816 123.1552 15.02819411630177
DTUSAT-2
1 40030U 14033W   25204.40221444  .00007519  00000-0  48309-3 0  9991
2 40030  98.0572 178.3611 0007337 272.0489  87.9898 15.08729433603009
EO-80
1 40032U 14033Y   25204.55282423  .00007017  00000-0  45025-3 0  9998
2 40032  98.0447 178.1129 0007873 201.3088 158.7812 15.08799910603009
LILACSAT-2
1 40908U 15049K   25204.61794300  .00013494  00000-0  34231-3 0  9990
2 40908  97.5044 226.0496 0008973  15.3337 344.8179 15.39769598545002
IO-86
1 40931U 15052B   25151.18580175  .00001241  00000-0  78118-4 0  9996
2 40931   6.0006  24.0987 0012733 338.8432  21.1169 14.78805930523047
Horyu-4
1 41340U 16012D   25204.29194876  .00024809  00000-0  62896-3 0  9998
2 41340  30.9944 197.6251 0006835 164.2066 195.8794 15.38448541519529
Lapan A3
1 41603U 16040E   25204.64734574  .00003565  00000-0  12459-3 0  9991
2 41603  97.1374 207.5337 0012803 109.4069 250.8557 15.30106817504527
CAS-2T
1 41847U 16066G   25204.48911380  .00001175  00000-0  17456-3 0  9990
2 41847  98.4186 278.5642 0346469  45.8220 317.0894 14.43606432457358
CAS-4B
1 42759U 17034B   25204.60259180  .00093473  00000-0  77235-3 0  9999
2 42759  43.0056  58.4358 0022412 242.7486 117.1097 15.68947738449500
CAS-4A
1 42761U 17034D   25204.65818695  .00100026  00000-0  76749-3 0  9991
2 42761  43.0093  54.6992 0023594 247.5858 112.2510 15.70655778449547
TechnoSat
1 42829U 17042E   25204.55204680  .00004321  00000-0  33370-3 0  9991
2 42829  97.3888  11.1512 0017304 129.1642 231.1124 15.01924070437323
AO-91
1 43017U 17073E   25204.60658915  .00009863  00000-0  49736-3 0  9994
2 43017  97.5192  74.2664 0171231  17.1149 343.5754 15.05378699415832
S-Net D
1 43186U 18014G   25204.44214889  .00004778  00000-0  28045-3 0  9997
2 43186  97.5585 106.9021 0010825  77.2896 282.9543 15.12160161409007
S-Net B
1 43187U 18014H   25204.24960796  .00004830  00000-0  28358-3 0  9997
2 43187  97.5591 106.6854 0011505  73.7402 286.5093 15.12138854408975
S-Net A
1 43188U 18014J   25204.31004431  .00004700  00000-0  27590-3 0  9994
2 43188  97.5598 106.9010 0011389  74.2062 286.0424 15.12164124408981
S-Net C
1 43189U 18014K   25204.45064663  .00004944  00000-0  29012-3 0  9994
2 43189  97.5615 107.0620 0012813  67.0141 293.2440 15.12136837407552
Ten-Koh
1 43677U 18084G   25204.47044791  .00002487  00000-0  20123-3 0  9999
2 43677  98.0839  18.4626 0009020 114.7865 245.4297 15.00735716366829
PO-101
1 43678U 18084H   25204.66243155  .00001796  00000-0  15542-3 0  9997
2 43678  98.1070  22.4781 0009089 130.0708 230.1312 14.98499440366980
QO-100
1 43700U 18090A   25204.77265406  .00000134  00000-0  00000+0 0  9999
2 43700   0.0201  66.2174 0002697  98.5400  80.9672  1.00273095 24628
MinXSS-2
1 43758U 18099A   25204.45248666  .00019193  00000-0  72818-3 0  9990
2 43758  97.5003 270.6578 0011113   9.4142 350.7302 15.26841380363667
AO-95
1 43770U 18099N   25204.43127672  .00010769  00000-0  53362-3 0  9998
2 43770  97.4895 262.0434 0011796  65.5462 294.7001 15.17872992363206
RANGE-A
1 43773U 18099R   25204.55743983  .00005298  00000-0  33467-3 0  9998
2 43773  97.4456 251.6859 0012161  47.3582 312.8670 15.09413988362856
MOVE-II
1 43780U 18099Y   25194.80194206  .15913345  26116-5  37118-3 0  9995
2 43780  97.4526 273.8800 0018736 270.1080  89.8075 16.44566529363241
SNUSat 2
1 43782U 18099AA  25204.40026334  .00007535  00000-0  40485-3 0  9990
2 43782  97.4574 258.4039 0011817  10.8280 349.3205 15.15128644363139
SnugLite
1 43784U 18099AC  25204.64950797  .00010179  00000-0  50047-3 0  9990
2 43784  97.4387 258.3012 0003554  30.2052 329.9387 15.18213221363320
ITASat 1
1 43786U 18099AE  25204.71998923  .00006832  00000-0  38535-3 0  9992
2 43786  97.4542 258.0956 0015408  58.5353 301.7382 15.13382099363134
EAGLET 1
1 43790U 18099AJ  25204.64123921  .00004844  00000-0  30677-3 0  9997
2 43790  97.4736 257.8267 0012852  44.4259 315.7999 15.09353224362710
ESEO
1 43792U 18099AL  25204.61730335  .00002333  00000-0  17868-3 0  9997
2 43792  97.4431 250.4705 0012619  15.4291 344.7317 15.02735723362431
CSIM
1 43793U 18099AM  25204.81023325  .00671539  18334-3  20758-2 0  9997
2 43793  97.4725 286.5374 0003953 272.8504  87.2317 15.91711238364633
JO-97
1 43803U 18099AX  25204.72137965  .00013214  00000-0  58703-3 0  9995
2 43803  97.4641 263.4204 0006843   3.5613 356.5670 15.21642142363485
Suomi 100
1 43804U 18099AY  25204.67688637  .00009966  00000-0  47759-3 0  9995
2 43804  97.4705 262.5436 0011756   2.5715 357.5578 15.19062503363397
ISAT
1 43879U 18111D   25204.49329391  .00023429  00000-0  77546-3 0  9998
2 43879  97.5928 119.8929 0009997  54.3086 305.9083 15.31280009360413
UWE-4
1 43880U 18111E   25204.72446997  .00018022  00000-0  68153-3 0  9995
2 43880  97.5872 118.2895 0013399  61.5389 298.7197 15.26939098358364
Sparrow
1 43881U 18111F   25204.50396967  .00024812  00000-0  78809-3 0  9996
2 43881  97.6078 122.9567 0008987  87.3900 272.8370 15.32601618360511
Prox-1
1 44339U 19036A   25204.50109977  .00012738  00000-0  15856-2 0  9991
2 44339  23.9959 133.1282 0007489 212.0005 148.0038 14.80655224324538
SONATE
1 44400U 19038Q   25185.47540524  .09032085  27445-5  31847-3 0  9995
2 44400  97.6609 216.4776 0012462 246.7970 113.2018 16.43248376333575
Taurus 1
1 44530U 19059C   25204.61156841  .00006616  00000-0  12091-2 0  9999
2 44530  98.6106 346.1162 0008237 254.0118 106.0177 14.66245308310399
Duchifat 3
1 44854U 19089C   25204.02724207  .00048978  00000-0  85040-3 0  9995
2 44854  36.9422  78.2739 0007058 306.9604  53.0507 15.49809101309759
